[[{"header":{"parameterUnit":"m.s-1","parameterCategory":1,"la1":30.2991,"la2":30.254,"lo1":-89.0895,"lo2":-89.0444,"dy":0.0017,"dx":0.0017,"nx":28,"ny":28,"refTime":"2023-10-12T03:00:00:Z","depth":0,"parameterNumber":2,"parameterNumberName":"U-component_of_WINDS"},"data":[0,0,0,0,0,0,0,0,0,0,0,0,0,0,0,0,0,0,0,0,0,0,0,0,0,0,0,0,0,0,0,0,0,0,0,0,0,0,0,0,0,0,0,0,0,0,0,0,0,0,0,0,0,0,0,0,0,0,-1.6885,-1.6885,0,-1.6948,-1.6949,-1.695,-1.693,-1.6929,-1.6928,-1.6926,-1.6991,-1.6994,-1.6997,0,0,0,0,0,0,0,0,0,0,0,0,0,-1.6745,-1.6747,-1.6884,-1.6885,-1.6886,-1.6948,-1.6949,-1.695,-1.6931,-1.6929,-1.6927,-1.6926,-1.699,-1.6993,-1.6997,0,0,0,0,0,0,0,0,0,0,0,0,0,-1.6807,-1.6748,-1.6884,-1.6884,-1.6885,-1.6948,-1.6949,-1.695,-1.6931,-1.6929,-1.6927,-1.6925,-1.6989,-1.6993,-1.6998,-1.7065,0,0,-1.7011,-1.7013,0,0,0,0,0,0,0,0,-1.6803,-1.6812,-1.6883,-1.6884,-1.6885,-1.6929,-1.6923,-1.6989,-1.6932,-1.6913,-1.6926,-1.6924,-1.6972,-1.6978,-1.6994,-1.7068,-1.7071,-1.7011,-1.7014,-1.7016,-1.7017,0,0,0,0,0,0,0,-1.6799,-1.6809,-1.691,-1.6884,-1.6885,-1.688,-1.6887,-1.6936,-1.6953,-1.6915,-1.6914,-1.6921,-1.6972,-1.699,-1.6995,-1.7072,-1.7011,-1.7015,-1.7018,-1.702,-1.7204,-1.7206,0,0,0,0,0,0,-1.6794,-1.6805,-1.6908,-1.6912,-1.6838,-1.6884,-1.6892,-1.6917,-1.6953,-1.6956,-1.6923,-1.692,-1.6983,-1.699,-1.6998,-1.7078,-1.7016,-1.702,-1.7023,-1.7201,-1.7204,-1.7206,0,0,0,0,0,0,-1.6791,-1.6803,-1.6905,-1.6858,-1.6871,-1.6889,-1.6918,-1.6919,-1.6937,-1.6959,-1.6962,-1.6938,-1.6982,-1.6991,-1.7048,-1.708,-1.7022,-1.7026,-1.7199,-1.7202,-1.7205,-1.7241,0,0,0,0,0,0,-1.6787,-1.6802,-1.6829,-1.6859,-1.6873,-1.6955,-1.692,-1.6922,-1.6945,-1.6942,-1.6974,-1.6977,-1.6981,-1.7042,-1.7053,-1.7085,-1.703,-1.7196,-1.72,-1.7204,-1.7237,-1.7245,-1.7252,0,0,0,0,0,-1.6782,-1.6836,-1.683,-1.6842,-1.6906,-1.6957,-1.6965,-1.6969,-1.6948,-1.6974,-1.6988,-1.6976,-1.7075,-1.7048,-1.706,-1.7094,-1.7194,-1.7199,-1.7204,-1.7233,-1.7243,-1.7252,0,0,0,0,0,0,-1.6809,-1.684,-1.6834,-1.6899,-1.6926,-1.6954,-1.6987,-1.698,-1.7013,-1.7008,-1.7012,-1.7019,-1.7077,-1.7092,-1.706,-1.7161,-1.7131,-1.7139,-1.715,-1.7159,-1.7167,-1.7162,-1.7033,0,0,0,0,0,-1.6822,-1.6861,-1.6886,-1.6941,-1.6955,-1.6969,-1.6991,-1.6992,-1.7019,-1.703,-1.7048,-1.7075,-1.7112,-1.7137,-1.7172,-1.7239,-1.7245,-1.7269,-1.7276,-1.7282,-1.7289,-1.7324,-1.7335,-1.7223,-1.7223,-1.7223,0,0,-1.685,-1.6872,-1.6896,-1.6947,-1.6968,-1.7007,-1.6978,-1.7022,-1.7051,-1.7037,-1.7091,-1.7106,-1.7136,-1.7198,-1.7226,-1.7212,-1.7321,-1.7289,-1.7293,-1.7296,-1.7331,-1.7341,-1.7351,-1.7226,-1.7226,-1.7225,0,0,-1.6921,-1.6942,-1.699,-1.7011,-1.7043,-1.7052,-1.7063,-1.7093,-1.7102,-1.7157,-1.7147,-1.7182,-1.7246,-1.7268,-1.7287,-1.7367,-1.7357,-1.7378,-1.7417,-1.7452,-1.7461,-1.7469,-1.7496,-1.7506,-1.7384,-1.7385,-1.7385,0,-1.6952,-1.7012,-1.7015,-1.706,-1.7082,-1.7071,-1.7119,-1.714,-1.7182,-1.7197,-1.718,-1.726,-1.728,-1.7347,-1.7366,-1.7383,-1.7395,-1.7374,-1.7459,-1.7467,-1.7474,-1.7501,-1.7511,-1.7387,-1.7387,-1.7386,-1.7386,0,-1.7047,-1.7089,-1.7124,-1.7164,-1.7191,-1.7237,-1.7247,-1.7273,-1.7272,-1.7282,-1.7338,-1.7361,-1.7401,-1.7417,-1.7416,-1.7484,-1.7473,-1.7458,-1.7428,-1.7487,-1.7512,-1.7522,-1.739,-1.7389,-1.7389,-1.7388,0,0,-1.7136,-1.7179,-1.7191,-1.7209,-1.7244,-1.7276,-1.7321,-1.736,-1.7382,-1.7411,-1.7449,-1.7504,-1.7489,-1.7512,-1.7513,-1.7544,-1.7604,-1.7524,-1.7525,-1.7538,-1.7679,-1.769,-1.7701,-1.7598,-1.76,-1.7602,-1.7676,0,-1.721,-1.729,-1.7294,-1.7367,-1.7405,-1.7395,-1.7434,-1.746,-1.7471,-1.7504,-1.7516,-1.7555,-1.7534,-1.7547,-1.7577,-1.759,-1.7632,-1.7585,-1.7632,-1.7634,-1.7624,-1.7715,-1.7726,-1.7795,-1.7686,-1.7688,-1.7689,0,-1.7306,-1.7338,-1.7414,-1.7443,-1.7459,-1.7494,-1.753,-1.7563,-1.7591,-1.7597,-1.7622,-1.7619,-1.7664,-1.7633,-1.7696,-1.7664,-1.7684,-1.7693,-1.7696,-1.77,-1.7664,-1.772,-1.7818,-1.7828,-1.7704,-1.7703,-1.7702,0,-1.7362,-1.7425,-1.7478,-1.7494,-1.7529,-1.7554,-1.757,-1.7596,-1.7619,-1.765,-1.7665,-1.7702,-1.7721,-1.7749,-1.7756,-1.7733,-1.7819,-1.7788,-1.7824,-1.7824,-1.7842,-1.7841,-1.7943,-1.7856,-1.7856,-1.7856,-1.7856,0,-1.7443,-1.749,-1.7504,-1.7536,-1.7588,-1.7593,-1.7644,-1.7658,-1.7682,-1.7717,-1.7711,-1.7744,-1.7751,-1.7785,-1.7791,-1.7842,-1.7851,-1.7856,-1.7857,-1.7856,-1.7856,-1.7869,-1.7864,-1.7859,-1.7858,-1.7857,-1.7857,0,-1.7514,-1.7526,-1.7583,-1.7612,-1.762,-1.7657,-1.7681,-1.7712,-1.7722,-1.7767,-1.7777,-1.7794,-1.7834,-1.7843,-1.7891,-1.7895,-1.7954,-1.7951,-1.7945,-1.7944,-1.7979,-1.7976,-1.8093,-1.8109,-1.8013,-1.8013,-1.8014,0,-1.7565,-1.76,-1.7633,-1.7656,-1.7673,-1.771,-1.7734,-1.774,-1.7765,-1.7799,-1.7826,-1.7866,-1.7897,-1.7962,-1.7977,-1.8013,-1.801,-1.8049,-1.8016,-1.8014,-1.801,-1.8007,-1.801,-1.8055,-1.8056,-1.8057,-1.8058,0,-1.7653,-1.7657,-1.7691,-1.7727,-1.7756,-1.7785,-1.7812,-1.7832,-1.7842,-1.787,-1.791,-1.7935,-1.7984,-1.8023,-1.8059,-1.8075,-1.8068,-1.8068,-1.8078,-1.8077,-1.8072,-1.8075,-1.7961,-1.8065,-1.8065,-1.8064,-1.8064,-1.8063,-1.7715,-1.7746,-1.7773,-1.7812,-1.7833,-1.7859,-1.789,-1.7904,-1.7938,-1.7978,-1.798,-1.8024,-1.8051,-1.81,-1.8117,-1.8152,-1.814,-1.8155,-1.8158,-1.8162,-1.8164,-1.8068,-1.8159,-1.8158,-1.8158,-1.8158,-1.8158,0,-1.7801,-1.7819,-1.7854,-1.7893,-1.7923,-1.7915,-1.7945,-1.797,-1.8009,-1.8035,-1.8067,-1.8113,-1.8151,-1.817,-1.8207,-1.8231,-1.8229,-1.8241,-1.8238,-1.8242,-1.8173,-1.816,-1.8242,-1.8242,-1.8242,-1.8242,-1.8242,-1.8242,-1.785,-1.7902,-1.7909,-1.7972,-1.7988,-1.8032,-1.805,-1.8074,-1.8094,-1.8147,-1.8178,-1.819,-1.8213,-1.8252,-1.8286,-1.8291,-1.8304,-1.8317,-1.832,-1.8255,-1.8247,-1.8239,-1.8227,-1.832,-1.8321,-1.8386,-1.8386,-1.8387]},{"header":{"parameterUnit":"m.s-1","parameterCategory":1,"la1":30.2991,"la2":30.254,"lo1":-89.0895,"lo2":-89.0444,"dy":0.0017,"dx":0.0017,"nx":28,"ny":28,"refTime":"2023-10-12T03:00:00:Z","depth":0,"parameterNumber":3,"parameterNumberName":"V-component_of_WINDS"},"data":[0,0,0,0,0,0,0,0,0,0,0,0,0,0,0,0,0,0,0,0,0,0,0,0,0,0,0,0,0,0,0,0,0,0,0,0,0,0,0,0,0,0,0,0,0,0,0,0,0,0,0,0,0,0,0,0,0,0,-2.2969,-2.297,0,-2.2999,-2.2999,-2.2999,-2.2979,-2.2979,-2.2978,-2.2977,-2.3007,-2.3008,-2.301,0,0,0,0,0,0,0,0,0,0,0,0,0,-2.2894,-2.2896,-2.2969,-2.297,-2.297,-2.2999,-2.2999,-2.3,-2.298,-2.2979,-2.2977,-2.2976,-2.3006,-2.3008,-2.301,0,0,0,0,0,0,0,0,0,0,0,0,0,-2.2926,-2.2896,-2.2969,-2.2964,-2.2963,-2.2999,-2.2999,-2.3,-2.298,-2.2978,-2.2977,-2.2976,-2.3005,-2.3008,-2.301,-2.3053,0,0,-2.3018,-2.3019,0,0,0,0,0,0,0,0,-2.2924,-2.2929,-2.2964,-2.2964,-2.2964,-2.2984,-2.2984,-2.3017,-2.298,-2.2974,-2.2977,-2.2975,-2.3,-2.3003,-2.3011,-2.3054,-2.3055,-2.3018,-2.3019,-2.302,-2.3021,0,0,0,0,0,0,0,-2.2922,-2.2927,-2.2981,-2.2965,-2.2964,-2.2959,-2.2962,-2.299,-2.2994,-2.2974,-2.2973,-2.2976,-2.3,-2.3009,-2.3012,-2.3056,-2.3018,-2.302,-2.3022,-2.3023,-2.3133,-2.3134,0,0,0,0,0,0,-2.292,-2.2925,-2.298,-2.2982,-2.294,-2.2962,-2.2965,-2.2979,-2.2994,-2.2995,-2.2978,-2.2975,-2.3006,-2.3009,-2.3013,-2.3063,-2.302,-2.3023,-2.3024,-2.3132,-2.3133,-2.3135,0,0,0,0,0,0,-2.2919,-2.2925,-2.2979,-2.2953,-2.296,-2.2964,-2.298,-2.298,-2.299,-2.2996,-2.2997,-2.2986,-2.3005,-2.301,-2.3043,-2.3063,-2.3024,-2.3026,-2.313,-2.3132,-2.3134,-2.3163,0,0,0,0,0,0,-2.2917,-2.2925,-2.2942,-2.2954,-2.2961,-2.3008,-2.2982,-2.2982,-2.2994,-2.2991,-2.3005,-2.3006,-2.3004,-2.3039,-2.3045,-2.3066,-2.3028,-2.3128,-2.3131,-2.3133,-2.316,-2.3166,-2.3171,0,0,0,0,0,-2.2914,-2.2949,-2.2942,-2.2949,-2.2982,-2.301,-2.3014,-2.3011,-2.2996,-2.3012,-2.3016,-2.3005,-2.306,-2.3043,-2.3049,-2.3071,-2.3127,-2.313,-2.3133,-2.3158,-2.3165,-2.3171,0,0,0,0,0,0,-2.2939,-2.295,-2.2943,-2.2983,-2.2996,-2.3006,-2.3027,-2.3019,-2.3036,-2.3033,-2.3029,-2.3032,-2.3066,-2.3072,-2.3052,-2.3112,-2.3091,-2.3096,-2.3107,-2.3114,-2.3119,-2.3117,-2.303,0,0,0,0,0,-2.2949,-2.2971,-2.2979,-2.3013,-2.302,-2.3022,-2.3034,-2.3031,-2.3044,-2.3049,-2.3056,-2.3068,-2.3088,-2.3101,-2.312,-2.3161,-2.3163,-2.3179,-2.3184,-2.3189,-2.3193,-2.3214,-2.3221,-2.3146,-2.3146,-2.3146,0,0,-2.297,-2.2979,-2.2993,-2.3019,-2.3028,-2.305,-2.3027,-2.3052,-2.3068,-2.3053,-2.3084,-2.3089,-2.3103,-2.314,-2.3156,-2.3146,-2.3214,-2.3193,-2.3196,-2.3198,-2.3218,-2.3225,-2.3231,-2.3148,-2.3147,-2.3147,0,0,-2.3019,-2.3029,-2.3057,-2.3067,-2.3081,-2.3082,-2.3089,-2.3101,-2.3104,-2.3135,-2.3124,-2.3143,-2.3178,-2.3188,-2.3197,-2.3249,-2.324,-2.3255,-2.3283,-2.3303,-2.3309,-2.3314,-2.3332,-2.3339,-2.326,-2.326,-2.326,0,-2.3043,-2.3077,-2.3073,-2.3099,-2.311,-2.3097,-2.3125,-2.3135,-2.3155,-2.3162,-2.315,-2.3193,-2.3201,-2.3239,-2.3252,-2.326,-2.3267,-2.3254,-2.3309,-2.3314,-2.3319,-2.3335,-2.3342,-2.3261,-2.3261,-2.3261,-2.3261,0,-2.3105,-2.3128,-2.315,-2.3169,-2.3183,-2.321,-2.3209,-2.3224,-2.3219,-2.3221,-2.3253,-2.3262,-2.3282,-2.3291,-2.3287,-2.3329,-2.3321,-2.3309,-2.3287,-2.3328,-2.3343,-2.335,-2.3264,-2.3263,-2.3263,-2.3262,0,0,-2.3171,-2.3187,-2.3195,-2.3203,-2.3218,-2.3235,-2.3261,-2.3281,-2.3292,-2.3306,-2.3327,-2.3356,-2.3345,-2.3355,-2.3352,-2.337,-2.3409,-2.3355,-2.3356,-2.3364,-2.3455,-2.3463,-2.3471,-2.3403,-2.3404,-2.3405,-2.3453,0,-2.3221,-2.3266,-2.3263,-2.3306,-2.3326,-2.3314,-2.3336,-2.3347,-2.335,-2.3367,-2.337,-2.339,-2.3374,-2.338,-2.3397,-2.3401,-2.3427,-2.3398,-2.3422,-2.3423,-2.3419,-2.3479,-2.3489,-2.3534,-2.3459,-2.346,-2.3461,0,-2.3285,-2.33,-2.3345,-2.3355,-2.3364,-2.3384,-2.3401,-2.3418,-2.343,-2.343,-2.3442,-2.3435,-2.3461,-2.3438,-2.3473,-2.3453,-2.3462,-2.3466,-2.3467,-2.3469,-2.3444,-2.3482,-2.3548,-2.3555,-2.3471,-2.347,-2.347,0,-2.3328,-2.336,-2.339,-2.3397,-2.341,-2.3425,-2.3431,-2.3441,-2.3452,-2.3467,-2.3474,-2.3492,-2.3501,-2.3515,-2.3513,-2.3497,-2.3548,-2.3526,-2.3548,-2.3548,-2.3559,-2.3559,-2.3627,-2.3567,-2.3567,-2.3566,-2.3566,0,-2.3383,-2.341,-2.3409,-2.3428,-2.3458,-2.3454,-2.3484,-2.3488,-2.3497,-2.3516,-2.3506,-2.3524,-2.3521,-2.3538,-2.3537,-2.3565,-2.357,-2.3571,-2.357,-2.3571,-2.3571,-2.3577,-2.3574,-2.3568,-2.3568,-2.3567,-2.3567,0,-2.3436,-2.3436,-2.3468,-2.3478,-2.348,-2.3502,-2.351,-2.3527,-2.3529,-2.3552,-2.3558,-2.356,-2.358,-2.358,-2.3603,-2.3602,-2.3636,-2.3632,-2.3632,-2.3631,-2.3653,-2.3651,-2.3728,-2.3738,-2.3671,-2.3672,-2.3673,0,-2.3471,-2.3491,-2.3503,-2.3515,-2.3521,-2.3541,-2.3552,-2.3549,-2.3561,-2.3575,-2.3591,-2.361,-2.3625,-2.3658,-2.3661,-2.3678,-2.3674,-2.37,-2.3677,-2.3677,-2.3674,-2.3672,-2.3674,-2.3704,-2.3705,-2.3706,-2.3706,0,-2.3532,-2.3531,-2.3548,-2.3565,-2.3579,-2.3593,-2.3605,-2.3615,-2.3613,-2.3627,-2.3647,-2.3659,-2.3682,-2.3701,-2.3717,-2.3723,-2.3714,-2.3713,-2.3719,-2.3721,-2.372,-2.372,-2.3644,-2.3712,-2.3711,-2.3711,-2.371,-2.371,-2.3577,-2.3594,-2.3605,-2.3624,-2.3632,-2.3644,-2.366,-2.3663,-2.368,-2.3699,-2.3696,-2.3718,-2.3728,-2.3749,-2.3756,-2.3773,-2.3764,-2.3773,-2.3775,-2.3778,-2.378,-2.3717,-2.3777,-2.3776,-2.3776,-2.3776,-2.3776,0,-2.3637,-2.3643,-2.3661,-2.3678,-2.3693,-2.3683,-2.3696,-2.3708,-2.3728,-2.3739,-2.3753,-2.3776,-2.3794,-2.3799,-2.3816,-2.3829,-2.3825,-2.3834,-2.3832,-2.3834,-2.3787,-2.378,-2.3836,-2.3836,-2.3836,-2.3836,-2.3836,-2.3836,-2.3671,-2.3699,-2.3699,-2.3732,-2.3737,-2.3759,-2.3767,-2.3777,-2.3785,-2.3811,-2.3826,-2.3829,-2.3837,-2.3854,-2.387,-2.3871,-2.3877,-2.3887,-2.3886,-2.3843,-2.3837,-2.3831,-2.3824,-2.3889,-2.3889,-2.3931,-2.3931,-2.3932]}]]